Location: Clanezzo
(45.7500°N, 9.6000°E)
Time: 05:54:00
(UTC+00:00)

Gbstr 26 Del rocket - Pass Details

Date: 28 September 2021
Orbit: 492 x 1263 km, 51.8° (Epoch: 20 October)

Event Time Altitude Azimuth Distance (km) Brightness Sun altitude
Exits shadow 02:45:42 15° 173° (S) 2,533 6.0 -26.2°
Drops below altitude 10° 02:46:50 10° 167° (SSE) 2,853 6.3 -26.1°
Sets 02:49:31 0° 159° (SSE) 3,690 7.0 -25.6°
